Location: Newark
(34.9500°N, 139.9667°E)
Time: 05:09:36
(UTC+00:00)

Vanguard 1 Rocket - Pass Details

Date: 13 December 2019
Orbit: 651 x 4226 km, 34.3° (Epoch: 28 January)

Event Time Altitude Azimuth Distance (km) Brightness Sun altitude
Rises 13:23:07 0° 269° (W) 7,332 12.2 -70.5°
Reaches altitude 10° 13:28:50 10° 269° (W) 5,777 11.6 -71.5°
Enters shadow 13:32:32 18° 269° (W) 4,700 11.0 -72.1°
Maximum altitude 13:44:13 87° 183° (S) 1,699 - -73.9°
Drops below altitude 10° 13:51:44 10° 95° (E) 3,011 - -75.0°
Sets 13:53:48 0° 95° (E) 3,721 - -75.3°
